DW8501 Madrid ES current weather conditions

sailwx.info

Air temperature 10.6° C
Dewpoint 10.2° C

Last reported at 2014-Nov-26 03:50 UTC.
Time now 2014-Nov-26 04:15 UTC

Location: N 40°27' W 003°35'.
View on Google Maps.

See reports from other nearby stations

  
Tides and Currents Weather Stations Pressure Air Temp Water Temp Dewpoint Dewpoint Depression Visibility Wind Speed Wind Dir Waves Ship Positions
date/time (UTC)wind fromknots sea level pressurealtimeterstation pressurevisibilityair tempwater tempwave heightnotes
2014-Nov-26 03:50 10.6
2014-Nov-26 03:35 357 0 gusting 1 10.6
2014-Nov-26 03:20 353 1 gusting 3 10.6
2014-Nov-26 03:05 045 3 gusting 4 10.6
2014-Nov-26 02:55 048 3 gusting 4 11.1
2014-Nov-26 02:50 019 2 gusting 4 11.1
2014-Nov-26 02:45 308 0 gusting 2 11.1
2014-Nov-26 02:35 283 0 gusting 6 11.1
2014-Nov-26 02:20 271 3 gusting 6 11.1
2014-Nov-26 02:05 281 3 gusting 6 11.1
2014-Nov-26 01:55 290 1 gusting 3 11.1
2014-Nov-26 01:50 281 1 gusting 4 11.1
2014-Nov-26 01:45 269 1 gusting 7 11.1
2014-Nov-26 01:35 268 5 gusting 7 11.1
2014-Nov-26 01:20 295 2 gusting 5 11.1
2014-Nov-26 01:05 277 4 gusting 6 11.1
2014-Nov-26 00:55 271 4 gusting 9 11.1
2014-Nov-26 00:50 271 6 gusting 9 11.1
2014-Nov-26 00:45 270 4 gusting 6 11.1
2014-Nov-26 00:35 279 3 gusting 8 11.1
2014-Nov-26 00:20 286 6 gusting 13 11.1
2014-Nov-26 00:05 242 3 gusting 6 11.1
2014-Nov-25 23:55 282 1 gusting 3 11.1
2014-Nov-25 23:50 286 1 gusting 6 11.1
2014-Nov-25 23:45 300 1 gusting 10 11.7
2014-Nov-25 23:40 293 4 gusting 10 11.1
2014-Nov-25 23:35 279 4 gusting 9 11.1
2014-Nov-25 23:30 280 3 gusting 9 11.1
2014-Nov-25 23:25 276 5 gusting 9 11.1
2014-Nov-25 23:20 272 3 gusting 8 11.1
2014-Nov-25 23:15 265 3 gusting 7 11.1
2014-Nov-25 23:10 283 4 gusting 6 11.7
2014-Nov-25 23:05 292 3 gusting 9 11.7
2014-Nov-25 23:00 273 3 gusting 10 11.1
2014-Nov-25 22:55 268 7 gusting 13 11.7
2014-Nov-25 22:50 257 7 gusting 13 11.7
2014-Nov-25 22:45 254 8 gusting 13 11.1
2014-Nov-25 22:35 285 3 gusting 7 11.7
2014-Nov-25 22:20 283 3 gusting 9 11.7
2014-Nov-25 22:05 286 4 gusting 10 11.1
2014-Nov-25 21:55 211 3 gusting 6 11.1
2014-Nov-25 21:50 201 3 gusting 4 11.1
2014-Nov-25 21:45 190 2 gusting 4 11.1
2014-Nov-25 21:35 11.1
2014-Nov-25 21:20 203 1 gusting 3 11.1
2014-Nov-25 21:05 10.6
2014-Nov-25 20:55 010 0 gusting 5 10.6
2014-Nov-25 20:50 10.6
2014-Nov-25 20:45 093 3 gusting 6 10.6
2014-Nov-25 20:35 095 4 gusting 6 10.6
2014-Nov-25 20:20 102 3 gusting 6 10.6
2014-Nov-25 20:05 085 3 gusting 6 11.1
2014-Nov-25 19:55 109 3 gusting 4 11.1
2014-Nov-25 19:50 122 1 gusting 3 11.1
2014-Nov-25 19:45 118 1 gusting 3 11.1
2014-Nov-25 19:40 090 0 gusting 2 11.1
2014-Nov-25 19:35 11.1
2014-Nov-25 19:30 138 0 gusting 3 11.1
2014-Nov-25 19:25 163 0 gusting 3 11.7
2014-Nov-25 19:20 184 1 gusting 3 11.7
2014-Nov-25 19:15 188 1 gusting 3 11.7
2014-Nov-25 19:10 183 2 gusting 3 11.7
2014-Nov-25 19:05 192 1 gusting 3 11.7
2014-Nov-25 19:00 210 1 gusting 4 11.7
2014-Nov-25 18:55 215 2 gusting 6 11.7
2014-Nov-25 18:50 196 0 gusting 11 11.7
2014-Nov-25 18:45 205 3 gusting 11 11.1
2014-Nov-25 18:35 160 1 gusting 8 10.6
2014-Nov-25 18:20 233 7 gusting 9 12.2
2014-Nov-25 18:05 294 3 gusting 3 12.2
2014-Nov-25 17:55 227 1 gusting 6 12.2
2014-Nov-25 17:50 223 4 gusting 9 12.2
2014-Nov-25 17:45 223 5 gusting 9 12.2
2014-Nov-25 17:40 219 6 gusting 9 12.2
2014-Nov-25 17:35 196 3 gusting 9 12.2
2014-Nov-25 17:30 192 4 gusting 9 12.2
2014-Nov-25 17:25 221 4 gusting 11 11.7
2014-Nov-25 17:20 229 6 gusting 11 11.1
2014-Nov-25 17:15 222 3 gusting 11 11.1
2014-Nov-25 17:10 225 6 gusting 11 11.1
2014-Nov-25 17:05 235 8 gusting 14 12.2
2014-Nov-25 17:00 229 8 gusting 14 12.2
2014-Nov-25 16:55 217 9 gusting 14 12.8
2014-Nov-25 16:50 210 6 gusting 8 13.9
2014-Nov-25 16:45 178 2 gusting 6 13.9
2014-Nov-25 16:40 158 4 gusting 6 13.9
2014-Nov-25 16:35 190 2 gusting 8 14.4
2014-Nov-25 16:30 192 1 gusting 8 14.4
2014-Nov-25 16:25 173 3 gusting 6 14.4
2014-Nov-25 16:20 187 4 gusting 7 14.4
2014-Nov-25 16:15 212 2 gusting 9 14.4
2014-Nov-25 16:10 221 5 gusting 9 14.4
2014-Nov-25 16:05 229 2 gusting 10 14.4
2014-Nov-25 16:00 228 5 gusting 10 14.4
2014-Nov-25 15:55 212 7 gusting 9 14.4
2014-Nov-25 15:50 204 6 gusting 8 15.0
2014-Nov-25 15:45 223 2 gusting 9 15.0
2014-Nov-25 15:40 218 5 gusting 9 15.0
2014-Nov-25 15:35 219 6 gusting 9 15.6
2014-Nov-25 15:30 232 4 gusting 7 15.6
2014-Nov-25 15:25 233 6 gusting 7 16.7
2014-Nov-25 15:20 231 1 gusting 6 17.2
2014-Nov-25 15:15 231 4 gusting 6 17.8
2014-Nov-25 15:10 228 6 gusting 6 18.9
2014-Nov-25 15:05 238 2 gusting 6 17.8
2014-Nov-25 15:00 267 2 gusting 6 17.8
2014-Nov-25 14:55 288 1 gusting 9 17.2
2014-Nov-25 14:50 171 1 gusting 9 16.1
2014-Nov-25 14:45 186 3 gusting 8 15.0
2014-Nov-25 14:35 264 3 gusting 13 15.0
2014-Nov-25 14:20 208 8 gusting 12 15.0
2014-Nov-25 14:05 219 5 gusting 11 15.6
2014-Nov-25 13:50 225 10 gusting 13 15.6
2014-Nov-25 13:45 226 8 gusting 12 15.6
2014-Nov-25 13:35 226 4 gusting 9 15.6
2014-Nov-25 13:20 226 5 gusting 13 15.6
2014-Nov-25 13:05 212 5 gusting 9 16.1
2014-Nov-25 12:55 237 6 gusting 11 16.1
2014-Nov-25 12:50 254 6 gusting 12 15.6
2014-Nov-25 12:45 266 7 gusting 12 16.1
2014-Nov-25 12:35 254 6 gusting 12 15.6
2014-Nov-25 12:20 215 5 gusting 10 16.1
2014-Nov-25 12:05 190 1 gusting 6 17.8
2014-Nov-25 11:55 195 4 gusting 6 18.9
2014-Nov-25 11:50 216 1 gusting 4 18.3
2014-Nov-25 11:45 222 2 gusting 4 18.9
2014-Nov-25 11:35 198 1 gusting 3 18.3
2014-Nov-25 11:20 185 2 gusting 6 16.7
2014-Nov-25 11:05 022 0 gusting 3 17.2
2014-Nov-25 10:55 066 1 gusting 3 16.7
2014-Nov-25 10:50 116 0 gusting 2 16.1
2014-Nov-25 10:45 115 0 gusting 2 15.0
2014-Nov-25 10:35 080 1 gusting 4 15.6
2014-Nov-25 10:20 073 0 gusting 3 15.0
2014-Nov-25 10:05 124 1 gusting 4 12.2
2014-Nov-25 09:55 115 1 gusting 5 12.2
2014-Nov-25 09:50 105 2 gusting 5 12.2
2014-Nov-25 09:45 094 3 gusting 5 12.2
2014-Nov-25 09:35 111 3 gusting 5 12.2
2014-Nov-25 09:20 110 3 gusting 4 12.2
2014-Nov-25 09:05 142 0 gusting 2 12.2
2014-Nov-25 08:55 115 1 gusting 2 12.8
2014-Nov-25 08:50 085 1 gusting 2 12.2
2014-Nov-25 08:45 094 1 gusting 2 12.2
2014-Nov-25 08:35 150 0 gusting 1 12.8
2014-Nov-25 08:20 11.1
2014-Nov-25 08:05 10.6
2014-Nov-25 07:55 173 0 gusting 1 9.4
2014-Nov-25 07:50 181 0 gusting 1 9.4
2014-Nov-25 07:45 8.9
2014-Nov-25 07:35 8.9
2014-Nov-25 07:20 136 0 gusting 1 8.3
2014-Nov-25 07:05 8.3
2014-Nov-25 06:55 097 0 gusting 1 8.3
2014-Nov-25 06:50 8.3
2014-Nov-25 06:45 8.3
2014-Nov-25 05:50 001 0 gusting 1 8.3
2014-Nov-25 05:35 8.3
2014-Nov-25 05:20 8.3
2014-Nov-25 05:05 130 0 gusting 1 8.9
2014-Nov-25 04:55 103 1 gusting 3 8.9
2014-Nov-25 04:50 090 1 gusting 2 8.9
2014-Nov-25 04:45 8.9
2014-Nov-25 04:35 9.4
2014-Nov-25 04:20 093 1 gusting 3 9.4
2014-Nov-25 04:05 9.4
2014-Nov-25 03:55 9.4
2014-Nov-25 03:50 10.0
2014-Nov-25 03:45 10.0
2014-Nov-25 03:35 10.0
2014-Nov-25 03:20 188 0 gusting 1 10.6
2014-Nov-25 03:05 10.6
2014-Nov-25 02:55 10.6
2014-Nov-25 02:50 10.6
2014-Nov-25 02:45 160 0 gusting 1 11.1
2014-Nov-25 02:35 190 0 gusting 1 10.6
2014-Nov-25 02:20 10.6
2014-Nov-25 02:05 10.6
2014-Nov-25 01:55 10.6
2014-Nov-25 01:50 10.6
2014-Nov-25 01:45 10.6
2014-Nov-25 01:35 225 0 gusting 1 10.6
2014-Nov-25 01:20 273 1 gusting 1 11.1
2014-Nov-25 01:05 11.1
2014-Nov-25 00:50 10.6
2014-Nov-25 00:35 11.1
2014-Nov-25 00:20 234 0 gusting 1 11.1
2014-Nov-25 00:05 11.1
2014-Nov-24 23:55 11.1
2014-Nov-24 23:50 11.7
2014-Nov-24 23:45 044 0 gusting 1 11.7
2014-Nov-24 23:35 103 1 gusting 1 11.7
2014-Nov-24 23:20 130 1 gusting 2 12.2
2014-Nov-24 23:05 12.2
2014-Nov-24 22:50 188 1 gusting 2 12.2
2014-Nov-24 22:35 12.2
2014-Nov-24 22:20 12.2
2014-Nov-24 22:05 12.2
2014-Nov-24 21:55 12.8
2014-Nov-24 21:50 12.8
2014-Nov-24 21:45 12.8
2014-Nov-24 21:35 12.8
2014-Nov-24 21:20 12.8
2014-Nov-24 21:05 13.9
2014-Nov-24 20:55 13.9
2014-Nov-24 20:50 13.9
2014-Nov-24 20:45 13.9
2014-Nov-24 20:35 13.9
2014-Nov-24 20:20 013 1 gusting 1 13.9
2014-Nov-24 20:05 14.4
2014-Nov-24 19:55 14.4
2014-Nov-24 19:50 093 0 gusting 3 14.4
2014-Nov-24 19:45 090 1 gusting 4 14.4
2014-Nov-24 19:35 15.0
2014-Nov-24 19:20 243 1 gusting 3 15.6
2014-Nov-24 19:05 270 1 gusting 2 15.6
2014-Nov-24 18:55 244 1 gusting 3 15.6
2014-Nov-24 18:50 239 1 gusting 2 15.6
2014-Nov-24 18:45 236 1 gusting 3 15.6
2014-Nov-24 18:35 219 1 gusting 3 15.6
2014-Nov-24 18:20 225 1 gusting 2 15.6
2014-Nov-24 18:05 241 1 gusting 1 15.6
2014-Nov-24 17:55 15.0
2014-Nov-24 17:50 15.6
2014-Nov-24 17:45 15.6
2014-Nov-24 17:35 16.1
2014-Nov-24 17:20 327 1 gusting 1 16.1
2014-Nov-24 17:05 16.7
2014-Nov-24 16:55 16.7
2014-Nov-24 16:50 16.7
2014-Nov-24 16:45 17.2
2014-Nov-24 16:35 17.2
2014-Nov-24 16:20 344 1 gusting 3 16.7
2014-Nov-24 16:05 341 1 gusting 3 16.7
2014-Nov-24 15:55 325 2 gusting 3 16.7
2014-Nov-24 15:50 336 1 gusting 3 16.7
2014-Nov-24 15:45 334 1 gusting 3 16.7
2014-Nov-24 15:35 036 2 gusting 3 17.2
2014-Nov-24 15:20 17.2
2014-Nov-24 15:05 112 1 gusting 3 17.8
2014-Nov-24 14:55 136 1 gusting 2 18.3
2014-Nov-24 14:50 135 1 gusting 3 18.3
2014-Nov-24 14:45 105 1 gusting 3 19.4
2014-Nov-24 14:35 19.4
2014-Nov-24 14:20 145 0 gusting 2 20.6
2014-Nov-24 14:05 039 5 gusting 6 20.6
2014-Nov-24 13:55 069 1 gusting 6 20.0
2014-Nov-24 13:50 18.9
2014-Nov-24 13:45 357 6 gusting 6 18.9
2014-Nov-24 13:35 004 3 gusting 6 19.4
2014-Nov-24 13:20 056 1 gusting 4 19.4
2014-Nov-24 13:05 027 6 gusting 9 20.6
2014-Nov-24 12:55 077 1 gusting 6 20.6
2014-Nov-24 12:50 082 1 gusting 6 19.4
2014-Nov-24 12:45 079 3 gusting 6 20.0
2014-Nov-24 12:35 032 0 gusting 2 21.7
2014-Nov-24 12:20 039 1 gusting 6 18.9
2014-Nov-24 12:05 034 5 gusting 6 18.9
2014-Nov-24 11:55 029 3 gusting 6 18.3
2014-Nov-24 11:50 355 1 gusting 3 18.9
2014-Nov-24 11:45 345 1 gusting 3 18.9
2014-Nov-24 11:35 074 1 gusting 5 17.8
2014-Nov-24 11:20 052 0 gusting 6 17.2
2014-Nov-24 11:05 063 3 gusting 4 19.4
2014-Nov-24 10:55 070 0 gusting 6 17.8
2014-Nov-24 10:50 059 1 gusting 6 16.7
2014-Nov-24 10:45 072 2 gusting 5 16.7
2014-Nov-24 10:35 107 1 gusting 5 16.7
2014-Nov-24 10:20 097 3 gusting 6 15.6
2014-Nov-24 10:05 108 3 gusting 4 16.1
2014-Nov-24 09:55 102 1 gusting 3 16.7
2014-Nov-24 09:50 065 0 gusting 3 17.2
2014-Nov-24 09:45 16.7
2014-Nov-24 09:35 052 1 gusting 6 15.6
2014-Nov-24 09:20 036 2 gusting 5 14.4
2014-Nov-24 09:05 041 3 gusting 6 13.3
2014-Nov-24 08:55 040 6 gusting 6 13.3
2014-Nov-24 08:50 051 1 gusting 5 13.9
2014-Nov-24 08:45 053 1 gusting 4 13.3
2014-Nov-24 08:35 042 3 gusting 6 12.8
2014-Nov-24 08:20 352 2 gusting 3 12.8
2014-Nov-24 08:05 340 0 gusting 2 12.2
2014-Nov-24 07:55 343 1 gusting 2 11.7
2014-Nov-24 07:50 333 1 gusting 1 11.1
2014-Nov-24 07:45 322 0 gusting 1 11.1
2014-Nov-24 07:35 10.6
2014-Nov-24 07:20 307 0 gusting 1 10.0
2014-Nov-24 07:05 10.0
2014-Nov-24 06:55 10.6
2014-Nov-24 06:50 021 0 gusting 3 10.6
2014-Nov-24 06:45 017 1 gusting 3 10.6
2014-Nov-24 06:35 337 1 gusting 3 10.6
2014-Nov-24 06:20 323 1 gusting 3 10.6
2014-Nov-24 06:05 320 0 gusting 1 10.6
2014-Nov-24 05:55 10.6
2014-Nov-24 05:50 006 1 gusting 3 10.6
2014-Nov-24 05:45 10.6
2014-Nov-24 05:35 014 1 gusting 3 11.1
2014-Nov-24 05:20 041 1 gusting 3 11.1
2014-Nov-24 05:05 11.1
2014-Nov-24 04:55 203 0 gusting 1 11.1
2014-Nov-24 04:50 11.1
2014-Nov-24 04:45 11.1
2014-Nov-24 04:35 11.1
2014-Nov-24 04:20 11.1
2014-Nov-24 04:05 332 0 gusting 1 11.7